,,Stat1,,Stat2,,Stat3,,Stat4,,Wind1,,Wind1,
time,status,PR1M_SUM,status,RH1M_AVG,status,SR1M_AVG,status,TA1M_AVG,status,W1dAve1m,status,W1sAve1m,
1999-08-23, 00:00:00,VALID,0,VALID,98.8367,VALID,0.101885,VALID,18.8802,VALID,100,VALID,0,
1999-08-23, 00:01:00,VALID,0,VALID,98.8494,VALID,0.101885,VALID,18.8927,VALID,93,VALID,0,
1999-08-23, 00:02:00,VALID,0,VALID,98.8189,VALID,0.101885,VALID,18.8929,VALID,86,VALID,0,
1999-08-23, 00:03:00,VALID,0,VALID,98.7935,VALID,0.101885,VALID,18.8795,VALID,87,VALID,0,
1999-08-23, 00:04:00,VALID,0,VALID,98.7261,VALID,0.101885,VALID,18.8733,VALID,82,VALID,0,
1999-08-23, 00:05:00,VALID,0,VALID,98.6091,VALID,0.101885,VALID,18.8638,VALID,69,VALID,0,
1999-08-23, 00:06:00,VALID,0,VALID,98.5239,VALID,0.101885,VALID,18.8668,VALID,65,VALID,0,
1999-08-23, 00:07:00,VALID,0,VALID,98.4629,VALID,0.101885,VALID,18.8708,VALID,45,VALID,0.446957,
1999-08-23, 00:08:00,VALID,0,VALID,98.3917,VALID,0.101885,VALID,18.8539,VALID,45,VALID,0.753472,
1999-08-23, 00:09:00,VALID,0,VALID,98.3739,VALID,0,VALID,18.8586,VALID,29,VALID,0.624609,
1999-08-23, 00:10:00,VALID,0,VALID,98.351,VALID,0,VALID,18.8501,VALID,12,VALID,0.590039,
1999-08-23, 00:11:00,VALID,0,VALID,98.4247,VALID,-0.0339617,VALID,18.8426,VALID,24,VALID,0.0510817,
1999-08-23, 00:12:00,VALID,0,VALID,98.5239,VALID,-0.0339617,VALID,18.856,VALID,37,VALID,0,
1999-08-23, 00:13:00,VALID,0,VALID,98.5862,VALID,-0.0169808,VALID,18.8662,VALID,79,VALID,0,
1999-08-23, 00:14:00,VALID,0,VALID,98.6371,VALID,0,VALID,18.8595,VALID,92,VALID,0,
1999-08-23, 00:15:00,VALID,0,VALID,98.6994,VALID,-0.0849042,VALID,18.8598,VALID,93,VALID,0,
1999-08-23, 00:16:00,VALID,0,VALID,98.7592,VALID,-0.0509425,VALID,18.8754,VALID,94,VALID,0,
1999-08-23, 00:17:00,VALID,0,VALID,98.8215,VALID,-0.0509425,VALID,18.8722,VALID,98,VALID,0,
1999-08-23, 00:18:00,VALID,0,VALID,98.88,VALID,-0.0509425,VALID,18.8888,VALID,106,VALID,0,
1999-08-23, 00:19:00,VALID,0,VALID,98.9461,VALID,-0.0509425,VALID,18.8983,VALID,102,VALID,0,
1999-08-23, 00:20:00,VALID,0,VALID,98.9728,VALID,-0.0509425,VALID,18.908,VALID,99,VALID,0,
1999-08-23, 00:21:00,VALID,0,VALID,98.9931,VALID,0,VALID,18.8948,VALID,98,VALID,0,
1999-08-23, 00:22:00,VALID,0,VALID,99.0109,VALID,-0.0339617,VALID,18.8847,VALID,98,VALID,0,
1999-08-23, 00:23:00,VALID,0,VALID,99.03,VALID,-0.0339617,VALID,18.8854,VALID,98,VALID,0,
1999-08-23, 00:24:00,VALID,0,VALID,99.0783,VALID,-0.0169808,VALID,18.8819,VALID,103,VALID,0,
1999-08-23, 00:25:01,VALID,0,VALID,99.1076,VALID,0,VALID,18.8946,VALID,114,VALID,0,
1999-08-23, 00:26:01,VALID,0,VALID,99.1267,VALID,0,VALID,18.908,VALID,117,VALID,0,
1999-08-23, 00:27:00,VALID,0,VALID,99.1432,VALID,0,VALID,18.9045,VALID,117,VALID,0,
1999-08-23, 00:28:00,VALID,0,VALID,99.1572,VALID,-0.0169808,VALID,18.9142,VALID,115,VALID,0,
1999-08-23, 00:29:00,VALID,0,VALID,99.1788,VALID,-0.0339617,VALID,18.9207,VALID,114,VALID,0,
1999-08-23, 00:30:00,VALID,0,VALID,99.1966,VALID,-0.0339617,VALID,18.9107,VALID,114,VALID,0,
1999-08-23, 00:31:00,VALID,0,VALID,99.1966,VALID,-0.0849042,VALID,18.9075,VALID,114,VALID,0,
1999-08-23, 00:32:00,VALID,0,VALID,99.203,VALID,-0.0339617,VALID,18.9117,VALID,107,VALID,0,
1999-08-23, 00:33:00,VALID,0,VALID,99.2157,VALID,-0.0339617,VALID,18.9015,VALID,100,VALID,0,
1999-08-23, 00:34:00,VALID,0,VALID,99.2284,VALID,0,VALID,18.908,VALID,99,VALID,0.0150082,
1999-08-23, 00:35:00,VALID,0,VALID,99.2525,VALID,0,VALID,18.8914,VALID,102,VALID,0.625617,
1999-08-23, 00:36:00,VALID,0,VALID,99.2424,VALID,-0.0509425,VALID,18.9015,VALID,81,VALID,0.523438,
1999-08-23, 00:37:00,VALID,0,VALID,99.2411,VALID,0,VALID,18.8625,VALID,79,VALID,0.0403646,
1999-08-23, 00:38:00,VALID,0,VALID,99.2335,VALID,-0.0339617,VALID,18.8595,VALID,99,VALID,0,
1999-08-23, 00:39:00,VALID,0,VALID,99.2411,VALID,-0.0509425,VALID,18.8473,VALID,53,VALID,0,
1999-08-23, 00:40:00,VALID,0,VALID,99.2704,VALID,-0.0679233,VALID,18.8304,VALID,56,VALID,0,
1999-08-23, 00:41:00,VALID,0,VALID,99.292,VALID,-0.0509425,VALID,18.8406,VALID,82,VALID,0,
1999-08-23, 00:42:00,VALID,0,VALID,99.3085,VALID,-0.0509425,VALID,18.8501,VALID,84,VALID,0,
1999-08-23, 00:43:00,VALID,0,VALID,99.3021,VALID,-0.0169808,VALID,18.8304,VALID,86,VALID,0,
1999-08-23, 00:44:00,VALID,0,VALID,99.3314,VALID,-0.0339617,VALID,18.8334,VALID,86,VALID,0,
1999-08-23, 00:45:00,VALID,0,VALID,99.3187,VALID,-0.0339617,VALID,18.8108,VALID,90,VALID,0,
1999-08-23, 00:46:00,VALID,0,VALID,99.311,VALID,-0.0509425,VALID,18.818,VALID,101,VALID,0,
1999-08-23, 00:47:00,VALID,0,VALID,99.3238,VALID,-0.0679233,VALID,18.8044,VALID,96,VALID,0,
1999-08-23, 00:48:00,VALID,0,VALID,99.3479,VALID,-0.0169808,VALID,18.8143,VALID,117,VALID,0,
1999-08-23, 00:49:00,VALID,0,VALID,99.3466,VALID,-0.0509425,VALID,18.8051,VALID,113,VALID,0,
1999-08-23, 00:50:00,VALID,0,VALID,99.3619,VALID,-0.0679233,VALID,18.8118,VALID,117,VALID,0,
1999-08-23, 00:51:00,VALID,0,VALID,99.3428,VALID,-0.0849042,VALID,18.7854,VALID,114,VALID,0,
1999-08-23, 00:52:00,VALID,0,VALID,99.3759,VALID,-0.0849042,VALID,18.7822,VALID,94,VALID,0,
1999-08-23, 00:53:00,VALID,0,VALID,99.3975,VALID,-0.0339617,VALID,18.779,VALID,96,VALID,0,
1999-08-23, 00:54:00,VALID,0,VALID,99.4268,VALID,0.0509425,VALID,18.8014,VALID,112,VALID,0,
1999-08-23, 00:55:00,VALID,0,VALID,99.409,VALID,0.0679233,VALID,18.7808,VALID,99,VALID,0,
1999-08-23, 00:56:00,VALID,0,VALID,99.4077,VALID,0.0509425,VALID,18.7639,VALID,87,VALID,0,
1999-08-23, 00:57:00,VALID,0,VALID,99.4102,VALID,0.0509425,VALID,18.7646,VALID,89,VALID,0,
1999-08-23, 00:58:00,VALID,0,VALID,99.4217,VALID,0.0509425,VALID,18.7619,VALID,99,VALID,0,
1999-08-23, 00:59:00,VALID,0,VALID,99.4293,VALID,0.0169808,VALID,18.7748,VALID,97,VALID,0,
1999-08-23, 01:00:00,VALID,0,VALID,99.4191,VALID,0.0169808,VALID,18.7485,VALID,96,VALID,0,
1999-08-23, 01:01:00,VALID,0,VALID,99.4179,VALID,0.0509425,VALID,18.7487,VALID,96,VALID,0,
1999-08-23, 01:02:00,VALID,0,VALID,99.4242,VALID,0.0169808,VALID,18.7358,VALID,97,VALID,0,
1999-08-23, 01:03:00,VALID,0,VALID,99.4522,VALID,0.0509425,VALID,18.7485,VALID,97,VALID,0,
1999-08-23, 01:04:00,VALID,0,VALID,99.4471,VALID,0.0339617,VALID,18.7487,VALID,99,VALID,0,
1999-08-23, 01:05:00,VALID,0,VALID,99.456,VALID,0.0509425,VALID,18.748,VALID,99,VALID,0,
1999-08-23, 01:06:00,VALID,0,VALID,99.4725,VALID,0,VALID,18.749,VALID,99,VALID,0,
1999-08-23, 01:07:00,VALID,0,VALID,99.4573,VALID,0.0169808,VALID,18.7455,VALID,99,VALID,0,
1999-08-23, 01:08:00,VALID,0,VALID,99.4547,VALID,0.0679233,VALID,18.7254,VALID,99,VALID,0,
1999-08-23, 01:09:01,VALID,0,VALID,99.47,VALID,0.0849042,VALID,18.7418,VALID,99,VALID,0,
1999-08-23, 01:10:01,VALID,0,VALID,99.4827,VALID,0.0339617,VALID,18.7545,VALID,101,VALID,0,
1999-08-23, 01:11:00,VALID,0,VALID,99.5043,VALID,0.0339617,VALID,18.7709,VALID,100,VALID,0,
1999-08-23, 01:12:00,VALID,0,VALID,99.4929,VALID,0.0849042,VALID,18.7773,VALID,99,VALID,0,
1999-08-23, 01:13:00,VALID,0,VALID,99.484,VALID,0.101885,VALID,18.7674,VALID,100,VALID,0,
1999-08-23, 01:14:00,VALID,0,VALID,99.4789,VALID,0.0679233,VALID,18.7644,VALID,121,VALID,0,
1999-08-23, 01:15:00,VALID,0,VALID,99.4675,VALID,0.0679233,VALID,18.7582,VALID,185,VALID,0,
1999-08-23, 01:16:00,VALID,0,VALID,99.4611,VALID,0.0679233,VALID,18.7519,VALID,195,VALID,0,
1999-08-23, 01:17:00,VALID,0,VALID,99.4318,VALID,0.0169808,VALID,18.7321,VALID,196,VALID,0,
1999-08-23, 01:18:00,VALID,0,VALID,99.4242,VALID,0.0509425,VALID,18.7159,VALID,195,VALID,0,
1999-08-23, 01:19:00,VALID,0,VALID,99.4344,VALID,0.0679233,VALID,18.7097,VALID,195,VALID,0,
1999-08-23, 01:20:01,VALID,0,VALID,99.4535,VALID,0.0849042,VALID,18.6963,VALID,195,VALID,0,
1999-08-23, 01:21:01,VALID,0,VALID,99.4764,VALID,0.0169808,VALID,18.7062,VALID,195,VALID,0,
1999-08-23, 01:22:00,VALID,0,VALID,99.4764,VALID,0.0679233,VALID,18.7095,VALID,195,VALID,0,
1999-08-23, 01:23:00,VALID,0,VALID,99.4853,VALID,0.0849042,VALID,18.7222,VALID,195,VALID,0,
1999-08-23, 01:24:00,VALID,0,VALID,99.5221,VALID,0.0679233,VALID,18.7452,VALID,170,VALID,0,
1999-08-23, 01:25:00,VALID,0,VALID,99.5298,VALID,0.0509425,VALID,18.7547,VALID,165,VALID,0,
1999-08-23, 01:26:00,VALID,0,VALID,99.5247,VALID,0.0679233,VALID,18.7743,VALID,165,VALID,0,
1999-08-23, 01:27:00,VALID,0,VALID,99.4992,VALID,0.0509425,VALID,18.7644,VALID,165,VALID,0,
1999-08-23, 01:28:00,VALID,0,VALID,99.4802,VALID,0.0509425,VALID,18.7549,VALID,203,VALID,0,
1999-08-23, 01:29:00,VALID,0,VALID,99.4509,VALID,0.0509425,VALID,18.739,VALID,233,VALID,0,
1999-08-23, 01:30:00,VALID,0,VALID,99.4395,VALID,0.0509425,VALID,18.7189,VALID,233,VALID,0.302015,
1999-08-23, 01:31:00,VALID,0,VALID,99.4675,VALID,0.0509425,VALID,18.7291,VALID,227,VALID,0.655469,
1999-08-23, 01:32:01,VALID,0,VALID,99.4865,VALID,0.0679233,VALID,18.7192,VALID,223,VALID,0.489062,
1999-08-23, 01:33:00,VALID,0,VALID,99.4865,VALID,0.0509425,VALID,18.7194,VALID,206,VALID,0.589844,
1999-08-23, 01:34:00,VALID,0,VALID,99.4903,VALID,0.0509425,VALID,18.7157,VALID,202,VALID,0.41838,
1999-08-23, 01:35:00,VALID,0,VALID,99.4636,VALID,0.0509425,VALID,18.6993,VALID,168,VALID,0.508018,
1999-08-23, 01:36:00,VALID,0,VALID,99.484,VALID,0.0849042,VALID,18.7065,VALID,161,VALID,0.52322,
1999-08-23, 01:37:00,VALID,0,VALID,99.4942,VALID,0.0679233,VALID,18.6966,VALID,156,VALID,0.628906,
1999-08-23, 01:38:00,VALID,0,VALID,99.4764,VALID,0.0849042,VALID,18.7067,VALID,150,VALID,0.711914,
1999-08-23, 01:39:00,VALID,0,VALID,99.4725,VALID,0,VALID,18.6878,VALID,149,VALID,0.623998,
1999-08-23, 01:40:00,VALID,0,VALID,99.4573,VALID,-0.0339617,VALID,18.6984,VALID,127,VALID,0.533923,
1999-08-23, 01:41:01,VALID,0,VALID,99.4802,VALID,-0.0339617,VALID,18.6913,VALID,106,VALID,0.108758,
1999-08-23, 01:42:00,VALID,0,VALID,99.4865,VALID,0,VALID,18.698,VALID,116,VALID,0,
1999-08-23, 01:43:01,VALID,0,VALID,99.4547,VALID,-0.0339617,VALID,18.698,VALID,116,VALID,0,
1999-08-23, 01:44:00,VALID,0,VALID,99.4446,VALID,-0.0339617,VALID,18.7014,VALID,110,VALID,0,
1999-08-23, 01:45:00,VALID,0,VALID,99.4675,VALID,-0.0849042,VALID,18.7176,VALID,105,VALID,0,
1999-08-23, 01:46:00,VALID,0,VALID,99.4573,VALID,-0.0849042,VALID,18.7275,VALID,95,VALID,0.218164,
1999-08-23, 01:47:00,VALID,0,VALID,99.3924,VALID,-0.101885,VALID,18.6954,VALID,98,VALID,0.950893,
1999-08-23, 01:48:00,VALID,0,VALID,99.3962,VALID,-0.0679233,VALID,18.7017,VALID,125,VALID,0.608347,
1999-08-23, 01:49:00,VALID,0,VALID,99.3784,VALID,-0.0679233,VALID,18.7019,VALID,147,VALID,0.416735,
1999-08-23, 01:50:00,VALID,0,VALID,99.3683,VALID,-0.101885,VALID,18.6828,VALID,147,VALID,0.158717,
1999-08-23, 01:51:00,VALID,0,VALID,99.3657,VALID,-0.101885,VALID,18.6758,VALID,160,VALID,0,
1999-08-23, 01:52:00,VALID,0,VALID,99.3606,VALID,-0.101885,VALID,18.6694,VALID,204,VALID,0,
1999-08-23, 01:53:00,VALID,0,VALID,99.3797,VALID,-0.101885,VALID,18.6694,VALID,213,VALID,0.127148,
1999-08-23, 01:54:01,VALID,0,VALID,99.367,VALID,0,VALID,18.6585,VALID,213,VALID,0.295473,
1999-08-23, 01:55:00,VALID,0,VALID,99.3606,VALID,0.101885,VALID,18.6546,VALID,210,VALID,0.386719,
1999-08-23, 01:56:00,VALID,0,VALID,99.3492,VALID,0.0509425,VALID,18.6548,VALID,203,VALID,0.473067,
1999-08-23, 01:57:00,VALID,0,VALID,99.3403,VALID,0.0339617,VALID,18.658,VALID,199,VALID,0.349507,
1999-08-23, 01:58:00,VALID,0,VALID,99.3479,VALID,0.0679233,VALID,18.6446,VALID,200,VALID,0.23247,
1999-08-23, 01:59:00,VALID,0,VALID,99.3403,VALID,0.0849042,VALID,18.6384,VALID,193,VALID,0,
1999-08-23, 02:00:00,VALID,0,VALID,99.3098,VALID,0.0169808,VALID,18.6324,VALID,189,VALID,0,
1999-08-23, 02:01:00,VALID,0,VALID,99.2805,VALID,0.0849042,VALID,18.6289,VALID,177,VALID,0,
1999-08-23, 02:02:00,VALID,0,VALID,99.2602,VALID,0.0509425,VALID,18.616,VALID,167,VALID,0,
1999-08-23, 02:03:00,VALID,0,VALID,99.2843,VALID,0.0339617,VALID,18.6324,VALID,161,VALID,0,
1999-08-23, 02:04:00,VALID,0,VALID,99.2793,VALID,0.0849042,VALID,18.6322,VALID,156,VALID,0,
1999-08-23, 02:05:01,VALID,0,VALID,99.2856,VALID,0.0509425,VALID,18.6386,VALID,156,VALID,0,
1999-08-23, 02:06:00,VALID,0,VALID,99.2627,VALID,0.0169808,VALID,18.6322,VALID,155,VALID,0,
1999-08-23, 02:07:00,VALID,0,VALID,99.25,VALID,0.0169808,VALID,18.6324,VALID,146,VALID,0,
1999-08-23, 02:08:00,VALID,0,VALID,99.2386,VALID,0.0339617,VALID,18.623,VALID,143,VALID,0,
1999-08-23, 02:09:00,VALID,0,VALID,99.2335,VALID,0.0169808,VALID,18.6267,VALID,143,VALID,0,
1999-08-23, 02:10:00,VALID,0,VALID,99.1979,VALID,-0.0679233,VALID,18.6043,VALID,144,VALID,0,
1999-08-23, 02:11:00,VALID,0,VALID,99.0936,VALID,-0.0339617,VALID,18.5528,VALID,144,VALID,0.170847,
1999-08-23, 02:12:00,VALID,0,VALID,99.002,VALID,-0.0339617,VALID,18.514,VALID,132,VALID,0.909745,
1999-08-23, 02:13:00,VALID,0,VALID,98.927,VALID,-0.0339617,VALID,18.5041,VALID,121,VALID,0.923018,
1999-08-23, 02:14:00,VALID,0,VALID,98.8189,VALID,-0.0339617,VALID,18.5207,VALID,120,VALID,0.715234,
1999-08-23, 02:15:00,VALID,0,VALID,98.6536,VALID,-0.0849042,VALID,18.5203,VALID,137,VALID,0.615954,
1999-08-23, 02:16:01,VALID,0,VALID,98.5036,VALID,-0.0679233,VALID,18.5434,VALID,145,VALID,0.845898,
1999-08-23, 02:17:00,VALID,0,VALID,98.3662,VALID,-0.0679233,VALID,18.5267,VALID,157,VALID,0.905804,
1999-08-23, 02:18:00,VALID,0,VALID,98.1895,VALID,-0.0679233,VALID,18.5207,VALID,163,VALID,1.02138,
1999-08-23, 02:19:00,VALID,0,VALID,98.1208,VALID,-0.0509425,VALID,18.5076,VALID,165,VALID,0.908717,
1999-08-23, 02:20:00,VALID,0,VALID,97.9911,VALID,0,VALID,18.5078,VALID,166,VALID,0.844161,
1999-08-23, 02:21:00,VALID,0,VALID,97.9212,VALID,-0.0339617,VALID,18.5043,VALID,163,VALID,0.631727,
1999-08-23, 02:22:00,VALID,0,VALID,97.8652,VALID,-0.0679233,VALID,18.5244,VALID,163,VALID,0.578559,
1999-08-23, 02:23:00,VALID,0,VALID,97.5855,VALID,-0.0509425,VALID,18.4984,VALID,164,VALID,0.586719,
1999-08-23, 02:24:00,VALID,0,VALID,96.9459,VALID,-0.0679233,VALID,18.5113,VALID,169,VALID,0.461338,
1999-08-23, 02:25:01,VALID,0,VALID,96.9611,VALID,-0.0509425,VALID,18.6017,VALID,171,VALID,0.175987,
1999-08-23, 02:26:01,VALID,0,VALID,97.0794,VALID,-0.0679233,VALID,18.6343,VALID,171,VALID,0.021176,
1999-08-23, 02:27:00,VALID,0,VALID,97.04,VALID,-0.0169808,VALID,18.598,VALID,192,VALID,0.327097,
1999-08-23, 02:28:00,VALID,0,VALID,97.1252,VALID,-0.0169808,VALID,18.5526,VALID,206,VALID,0.423399,
1999-08-23, 02:29:00,VALID,0,VALID,97.2523,VALID,-0.0339617,VALID,18.524,VALID,168,VALID,0.932031,
1999-08-23, 02:30:00,VALID,0,VALID,97.3197,VALID,-0.0509425,VALID,18.4656,VALID,178,VALID,1.12027,
1999-08-23, 02:31:00,VALID,0,VALID,97.2574,VALID,-0.0679233,VALID,18.4822,VALID,189,VALID,0.998633,
1999-08-23, 02:32:00,VALID,0,VALID,97.1849,VALID,-0.0339617,VALID,18.5237,VALID,188,VALID,0.963616,
1999-08-23, 02:33:00,VALID,0,VALID,97.1569,VALID,-0.0849042,VALID,18.5401,VALID,196,VALID,0.809827,
1999-08-23, 02:34:00,VALID,0,VALID,97.1735,VALID,-0.0679233,VALID,18.5341,VALID,222,VALID,0.475535,
1999-08-23, 02:35:00,VALID,0,VALID,97.3083,VALID,-0.0679233,VALID,18.5143,VALID,227,VALID,0.622738,
1999-08-23, 02:36:00,VALID,0,VALID,97.4469,VALID,-0.0679233,VALID,18.5048,VALID,218,VALID,0.599392,
1999-08-23, 02:37:00,VALID,0,VALID,97.4977,VALID,-0.0849042,VALID,18.4854,VALID,209,VALID,0.52908,
1999-08-23, 02:38:00,VALID,0,VALID,97.5168,VALID,-0.0509425,VALID,18.4589,VALID,213,VALID,0.01875,
1999-08-23, 02:39:00,VALID,0,VALID,97.5766,VALID,-0.0169808,VALID,18.4559,VALID,199,VALID,0.274439,
1999-08-23, 02:40:00,VALID,0,VALID,97.6872,VALID,-0.0509425,VALID,18.4363,VALID,204,VALID,0.610609,
1999-08-23, 02:41:00,VALID,0,VALID,97.7788,VALID,-0.0679233,VALID,18.4171,VALID,221,VALID,0.574013,
1999-08-23, 02:42:00,VALID,0,VALID,97.8614,VALID,-0.0679233,VALID,18.4017,VALID,215,VALID,0.632813,
1999-08-23, 02:43:00,VALID,0,VALID,97.9644,VALID,-0.0509425,VALID,18.379,VALID,202,VALID,0.598895,
1999-08-23, 02:44:00,VALID,0,VALID,98.0979,VALID,-0.0509425,VALID,18.3428,VALID,200,VALID,0.618945,
1999-08-23, 02:45:00,VALID,0,VALID,98.2798,VALID,-0.0679233,VALID,18.3504,VALID,201,VALID,0.760691,
1999-08-23, 02:46:00,VALID,0,VALID,98.4845,VALID,-0.0339617,VALID,18.3467,VALID,195,VALID,0.774219,
1999-08-23, 02:47:00,VALID,0,VALID,98.6829,VALID,-0.0339617,VALID,18.3597,VALID,210,VALID,0.707366,
1999-08-23, 02:48:00,VALID,0,VALID,98.8418,VALID,-0.0679233,VALID,18.3887,VALID,203,VALID,0.848479,
1999-08-23, 02:49:00,VALID,0,VALID,98.9995,VALID,-0.0679233,VALID,18.4077,VALID,191,VALID,0.893709,
1999-08-23, 02:50:00,VALID,0,VALID,99.0745,VALID,-0.0849042,VALID,18.437,VALID,185,VALID,0.920436,
1999-08-23, 02:51:00,VALID,0,VALID,99.0542,VALID,-0.0849042,VALID,18.4275,VALID,179,VALID,0.66276,
1999-08-23, 02:52:00,VALID,0,VALID,99.1114,VALID,-0.0679233,VALID,18.418,VALID,189,VALID,0.840929,
1999-08-23, 02:53:00,VALID,0,VALID,99.1788,VALID,-0.0509425,VALID,18.4277,VALID,180,VALID,0.802539,
1999-08-23, 02:54:00,VALID,0,VALID,99.1623,VALID,-0.0679233,VALID,18.424,VALID,175,VALID,0.0801282,
1999-08-23, 02:55:00,VALID,0,VALID,99.1508,VALID,-0.0339617,VALID,18.3982,VALID,147,VALID,0.0456414,
1999-08-23, 02:56:00,VALID,0,VALID,99.0834,VALID,-0.0339617,VALID,18.3437,VALID,145,VALID,0.746094,
1999-08-23, 02:57:00,VALID,0,VALID,99.1368,VALID,-0.0339617,VALID,18.3338,VALID,161,VALID,0.654194,
1999-08-23, 02:58:00,VALID,0,VALID,99.1368,VALID,-0.0169808,VALID,18.2978,VALID,157,VALID,0.726944,
1999-08-23, 02:59:00,VALID,0,VALID,99.1788,VALID,0,VALID,18.2916,VALID,139,VALID,0.846289,
1999-08-23, 03:00:00,VALID,0,VALID,99.222,VALID,-0.0339617,VALID,18.292,VALID,115,VALID,0.683594,
1999-08-23, 03:01:00,VALID,0,VALID,99.2373,VALID,-0.0339617,VALID,18.2655,VALID,117,VALID,0.353125,
1999-08-23, 03:02:00,VALID,0,VALID,99.2551,VALID,-0.0339617,VALID,18.2459,VALID,136,VALID,0.00558036,
1999-08-23, 03:03:00,VALID,0,VALID,99.278,VALID,-0.0679233,VALID,18.2533,VALID,136,VALID,0,
1999-08-23, 03:04:00,VALID,0,VALID,99.2856,VALID,-0.0679233,VALID,18.2436,VALID,136,VALID,0,
1999-08-23, 03:05:00,VALID,0,VALID,99.2983,VALID,-0.0169808,VALID,18.2309,VALID,132,VALID,0,
1999-08-23, 03:06:00,VALID,0,VALID,99.2983,VALID,-0.0509425,VALID,18.2143,VALID,132,VALID,0,
1999-08-23, 03:07:00,VALID,0,VALID,99.2971,VALID,0,VALID,18.1813,VALID,132,VALID,0,
1999-08-23, 03:08:00,VALID,0,VALID,99.2945,VALID,-0.0169808,VALID,18.1815,VALID,132,VALID,0,
1999-08-23, 03:09:01,VALID,0,VALID,99.3098,VALID,-0.0169808,VALID,18.1492,VALID,132,VALID,0,
1999-08-23, 03:10:01,VALID,0,VALID,99.3199,VALID,-0.0339617,VALID,18.1467,VALID,132,VALID,0,
1999-08-23, 03:11:00,VALID,0,VALID,99.3377,VALID,-0.0169808,VALID,18.1363,VALID,132,VALID,0,
1999-08-23, 03:12:00,VALID,0,VALID,99.3314,VALID,0,VALID,18.1204,VALID,132,VALID,0,
1999-08-23, 03:13:00,VALID,0,VALID,99.3517,VALID,0,VALID,18.1238,VALID,132,VALID,0,
1999-08-23, 03:14:00,VALID,0,VALID,99.3581,VALID,-0.0339617,VALID,18.1273,VALID,132,VALID,0,
1999-08-23, 03:15:00,VALID,0,VALID,99.3492,VALID,-0.0169808,VALID,18.0913,VALID,132,VALID,0,
1999-08-23, 03:16:00,VALID,0,VALID,99.3339,VALID,-0.0169808,VALID,18.0747,VALID,132,VALID,0,
1999-08-23, 03:17:00,VALID,0,VALID,99.3301,VALID,-0.0339617,VALID,18.059,VALID,132,VALID,0,
1999-08-23, 03:18:00,VALID,0,VALID,99.3377,VALID,-0.0169808,VALID,18.0364,VALID,132,VALID,0,
1999-08-23, 03:19:00,VALID,0,VALID,99.3568,VALID,-0.0169808,VALID,18.0431,VALID,132,VALID,0,
1999-08-23, 03:20:01,VALID,0,VALID,99.3746,VALID,-0.0169808,VALID,18.0463,VALID,132,VALID,0,
1999-08-23, 03:21:00,VALID,0,VALID,99.3886,VALID,-0.0509425,VALID,18.0525,VALID,132,VALID,0,
1999-08-23, 03:22:00,VALID,0,VALID,99.3962,VALID,-0.0169808,VALID,18.0463,VALID,132,VALID,0,
1999-08-23, 03:23:00,VALID,0,VALID,99.395,VALID,-0.0169808,VALID,18.0391,VALID,153,VALID,0,
1999-08-23, 03:24:00,VALID,0,VALID,99.4471,VALID,-0.0169808,VALID,18.0629,VALID,164,VALID,0.28145,
1999-08-23, 03:25:00,VALID,0,VALID,99.4662,VALID,-0.0169808,VALID,18.0751,VALID,163,VALID,0.393503,
1999-08-23, 03:26:00,VALID,0,VALID,99.4624,VALID,-0.0679233,VALID,18.0885,VALID,161,VALID,0.143709,
1999-08-23, 03:27:00,VALID,0,VALID,99.4547,VALID,0,VALID,18.0885,VALID,155,VALID,0,
1999-08-23, 03:28:00,VALID,0,VALID,99.4344,VALID,-0.0169808,VALID,18.0689,VALID,155,VALID,0,
1999-08-23, 03:29:00,VALID,0,VALID,99.4191,VALID,-0.0509425,VALID,18.0594,VALID,155,VALID,0,
1999-08-23, 03:30:00,VALID,0,VALID,99.4077,VALID,-0.0339617,VALID,18.0398,VALID,155,VALID,0,
1999-08-23, 03:31:00,VALID,0,VALID,99.4229,VALID,-0.0679233,VALID,18.0497,VALID,97,VALID,0,
1999-08-23, 03:32:00,VALID,0,VALID,99.4929,VALID,-0.0679233,VALID,18.0821,VALID,76,VALID,0,
1999-08-23, 03:33:00,VALID,0,VALID,99.5081,VALID,-0.0339617,VALID,18.1245,VALID,75,VALID,0.113487,
1999-08-23, 03:34:00,VALID,0,VALID,99.5107,VALID,-0.0169808,VALID,18.1301,VALID,104,VALID,0.164268,
1999-08-23, 03:35:00,VALID,0,VALID,99.5018,VALID,-0.0679233,VALID,18.1305,VALID,106,VALID,0.202508,
1999-08-23, 03:36:00,VALID,0,VALID,99.4878,VALID,-0.0509425,VALID,18.1499,VALID,102,VALID,0.151476,
1999-08-23, 03:37:00,VALID,0,VALID,99.4878,VALID,-0.0509425,VALID,18.1534,VALID,117,VALID,0,
1999-08-23, 03:38:00,VALID,0,VALID,99.4789,VALID,-0.0679233,VALID,18.1564,VALID,123,VALID,0.0136719,
1999-08-23, 03:39:00,VALID,0,VALID,99.4751,VALID,-0.0339617,VALID,18.1561,VALID,120,VALID,0.462139,
1999-08-23, 03:40:00,VALID,0,VALID,99.47,VALID,-0.0339617,VALID,18.1566,VALID,115,VALID,0.565584,
1999-08-23, 03:41:00,VALID,0,VALID,99.4509,VALID,-0.0169808,VALID,18.1499,VALID,123,VALID,0.328947,
1999-08-23, 03:42:00,VALID,0,VALID,99.4687,VALID,-0.0169808,VALID,18.1432,VALID,132,VALID,0.0129523,
1999-08-23, 03:43:00,VALID,0,VALID,99.4751,VALID,-0.0169808,VALID,18.1397,VALID,132,VALID,0,
1999-08-23, 03:44:00,VALID,0,VALID,99.4992,VALID,-0.0679233,VALID,18.1693,VALID,132,VALID,0,
1999-08-23, 03:45:00,VALID,0,VALID,99.512,VALID,-0.0679233,VALID,18.1691,VALID,126,VALID,0,
1999-08-23, 03:46:00,VALID,0,VALID,99.5209,VALID,-0.0679233,VALID,18.1787,VALID,125,VALID,0,
1999-08-23, 03:47:00,VALID,0,VALID,99.5081,VALID,-0.0509425,VALID,18.1824,VALID,125,VALID,0,
1999-08-23, 03:48:00,VALID,0,VALID,99.5069,VALID,-0.0849042,VALID,18.173,VALID,125,VALID,0,
1999-08-23, 03:49:00,VALID,0,VALID,99.5196,VALID,-0.101885,VALID,18.1727,VALID,126,VALID,0,
1999-08-23, 03:50:00,VALID,0,VALID,99.5298,VALID,-0.0679233,VALID,18.1757,VALID,133,VALID,0,
1999-08-23, 03:51:00,VALID,0,VALID,99.531,VALID,-0.0509425,VALID,18.1691,VALID,129,VALID,0,
1999-08-23, 03:52:00,VALID,0,VALID,99.5272,VALID,-0.0169808,VALID,18.1887,VALID,130,VALID,0.63303,
1999-08-23, 03:53:00,VALID,0,VALID,99.512,VALID,-0.0339617,VALID,18.1947,VALID,129,VALID,0.70957,
1999-08-23, 03:54:01,VALID,0,VALID,99.4929,VALID,0.0339617,VALID,18.1875,VALID,129,VALID,0.522236,
1999-08-23, 03:55:00,VALID,0,VALID,99.4598,VALID,0.0679233,VALID,18.2034,VALID,133,VALID,0.33347,
1999-08-23, 03:56:00,VALID,0,VALID,99.414,VALID,0.0679233,VALID,18.1843,VALID,143,VALID,0.353002,
1999-08-23, 03:57:00,VALID,0,VALID,99.3734,VALID,0.0679233,VALID,18.1575,VALID,154,VALID,0.334498,
1999-08-23, 03:58:00,VALID,0,VALID,99.3454,VALID,0.0169808,VALID,18.1587,VALID,165,VALID,0.119665,
1999-08-23, 03:59:00,VALID,0,VALID,99.3365,VALID,0.0339617,VALID,18.1421,VALID,166,VALID,0,
1999-08-23, 04:00:00,VALID,0,VALID,99.3327,VALID,0.0509425,VALID,18.119,VALID,168,VALID,0,
1999-08-23, 04:01:00,VALID,0,VALID,99.3657,VALID,0.0679233,VALID,18.1088,VALID,185,VALID,0,
1999-08-23, 04:02:00,VALID,0,VALID,99.3721,VALID,0.0339617,VALID,18.1162,VALID,192,VALID,0.0234375,
1999-08-23, 04:03:00,VALID,0,VALID,99.3962,VALID,0.0509425,VALID,18.1028,VALID,191,VALID,1.02878,
1999-08-23, 04:04:00,VALID,0,VALID,99.4077,VALID,0.0339617,VALID,18.1155,VALID,187,VALID,0.797492,
1999-08-23, 04:05:01,VALID,0,VALID,99.3962,VALID,0.0509425,VALID,18.1358,VALID,172,VALID,0.884046,
1999-08-23, 04:06:00,VALID,0,VALID,99.3428,VALID,0.0169808,VALID,18.1386,VALID,175,VALID,0.630642,
1999-08-23, 04:07:00,VALID,0,VALID,99.3136,VALID,0.0169808,VALID,18.1386,VALID,182,VALID,0.527778,
1999-08-23, 04:08:00,VALID,0,VALID,99.2958,VALID,0.0339617,VALID,18.1448,VALID,192,VALID,0.401367,